This is the latest recevied weather packets stored in our database for station/object W4KAB. If no packets are shown the sender has not sent any weather packets the latest 10 day(s).
| Time | Temp. | Humidity | Pressure | Rain* | Wind** | Luminosity | Snow |
|---|---|---|---|---|---|---|---|
| 1777900698 | 10.56° C | 80% | 1018.7 hPa | 0 mm | - | 23 W/m² | - |
| 1777900395 | 10° C | 82% | 1019 hPa | 0 mm | - | 23 W/m² | - |
| 1777900092 | 9.44° C | 85% | 1018.8 hPa | 0 mm | - | 22 W/m² | - |
| 1777899788 | 9.44° C | 86% | 1018.7 hPa | 0 mm | - | 22 W/m² | - |
| 1777899485 | 8.89° C | 84% | 1018.6 hPa | 0 mm | - | 21 W/m² | - |
| 1777899183 | 8.33° C | 85% | 1018.5 hPa | 0 mm | - | 21 W/m² | - |
| 1777898880 | 7.78° C | 87% | 1018.6 hPa | 0 mm | - | 26 W/m² | - |
| 1777898578 | 7.78° C | 88% | 1018.2 hPa | 0 mm | - | 20 W/m² | - |
| 1777898275 | 7.22° C | 89% | 1018.4 hPa | 0 mm | - | 20 W/m² | - |
| 1777897972 | 7.22° C | 89% | 1018.6 hPa | 0 mm | - | 26 W/m² | - |
| 1777897668 | 7.22° C | 90% | 1018.5 hPa | 0 mm | - | 18 W/m² | - |
| 1777897364 | 7.22° C | 89% | 1018.5 hPa | 0 mm | - | 13 W/m² | - |
| 1777897060 | 7.22° C | 88% | 1018.4 hPa | 0 mm | - | 11 W/m² | - |
| 1777896757 | 6.67° C | 87% | 1018.3 hPa | 0 mm | - | 25 W/m² | - |
| 1777896454 | 6.67° C | 88% | 1018.7 hPa | 0 mm | - | 31 W/m² | - |
| 1777896152 | 6.11° C | 90% | 1018.4 hPa | 0 mm | - | 36 W/m² | - |
| 1777895849 | 5.56° C | 91% | 1018.9 hPa | 0 mm | - | 22 W/m² | - |
| 1777895546 | 5.56° C | 92% | 1018.7 hPa | 0 mm | - | 16 W/m² | - |
| 1777895244 | 5° C | 94% | 1018.5 hPa | 0 mm | - | 14 W/m² | - |
| 1777894942 | 5° C | 95% | 1018 hPa | 0 mm | - | 13 W/m² | - |
| 1777894639 | 5° C | 95% | 1018.4 hPa | 0 mm | - | 12 W/m² | - |
| 1777894335 | 4.44° C | 95% | 1018.5 hPa | 0 mm | - | 12 W/m² | - |
| 1777894033 | 4.44° C | 96% | 1018.4 hPa | 0 mm | - | 11 W/m² | - |
| 1777893729 | 4.44° C | 96% | 1018.5 hPa | 0 mm | - | 11 W/m² | - |
| 1777893425 | 3.89° C | 96% | 1018.6 hPa | 0 mm | - | 10 W/m² | - |
* Rain latest hour (hover to see other rain measurements)
** Current wind speed in m/s (hover to see current wind gust speed)